FW0311 Weather Reports


time (UTC)temp
C
wind
direction
speed
KPH
gust
KPH
rain 1hr
cm
rain 24hr
cm
rain mn
cm
humidity
%
barometer
mb
20260509123055 9 246 1.6 16.1 0.03 0.05 0.05 97 1010.6
20260509121604 8 243 0.0 9.7 0.03 0.05 0.05 97 1010.8
20260509120105 8 300 0.0 0.0 0.03 0.05 0.05 97 1010.8
20260509114551 8 300 0.0 6.4 0.00 0.03 0.03 97 1010.8
20260509113054 8 301 0.0 0.0 0.00 0.03 0.03 97 1010.9
20260509111549 8 301 0.0 0.0 0.03 0.03 0.03 97 1011.1
20260509110053 8 301 0.0 0.0 0.03 0.03 0.03 97 1011.1
20260509104548 8 301 0.0 0.0 0.03 0.03 0.03 96 1011.3
20260509103048 8 301 0.0 0.0 0.03 0.03 0.03 96 1011.4
20260509101553 8 301 0.0 0.0 0.00 0.00 0.00 96 1011.3
20260509100046 8 301 0.0 0.0 0.00 0.00 0.00 96 1011.3
20260509094545 8 301 0.0 0.0 0.00 0.00 0.00 96 1011.4
20260509093045 8 301 0.0 0.0 0.00 0.00 0.00 96 1011.1
20260509091557 8 301 0.0 0.0 0.00 0.00 0.00 96 1011.2
20260509090046 8 301 0.0 0.0 0.00 0.00 0.00 96 1011.3
20260509084546 8 301 0.0 0.0 0.00 0.00 0.00 95 1011.2
20260509083043 8 301 0.0 0.0 0.00 0.00 0.00 95 1011.2
20260509081540 8 301 0.0 0.0 0.00 0.00 0.00 94 1011.0
20260509080045 8 301 0.0 0.0 0.00 0.00 0.00 94 1010.9
20260509074543 8 301 0.0 0.0 0.00 0.00 0.00 94 1010.9
20260509073105 8 301 0.0 0.0 0.00 0.00 0.00 94 1011.0
20260509071537 8 301 0.0 0.0 0.00 0.00 0.00 93 1011.1
20260509070032 8 301 0.0 0.0 0.00 0.00 0.00 93 1011.4
20260509064529 8 301 0.0 0.0 0.00 0.00 0.00 93 1011.5
20260509063128 8 301 0.0 0.0 0.00 0.00 0.00 93 1011.8
20260509061526 8 301 0.0 0.0 0.00 0.00 0.00 92 1011.9
20260509060031 8 301 0.0 0.0 0.00 0.00 0.00 92 1012.5
20260509054520 9 301 0.0 0.0 0.00 0.00 0.00 91 1012.4
20260509053022 9 301 0.0 0.0 0.00 0.00 0.00 90 1012.4
20260509051516 10 301 0.0 0.0 0.00 0.00 0.00 89 1012.6
20260509050014 10 301 0.0 0.0 0.00 0.00 0.00 88 1012.7
20260509044512 10 301 0.0 0.0 0.00 0.00 0.00 86 1012.9
20260509043007 10 301 0.0 0.0 0.00 0.00 0.00 84 1013.2
20260509041506 10 301 0.0 0.0 0.00 0.00 0.00 86 1013.2
20260509040002 10 301 0.0 0.0 0.00 0.00 0.00 88 1013.1
20260509034501 10 301 0.0 0.0 0.00 0.00 0.00 86 1013.0
20260509033002 10 301 0.0 0.0 0.00 0.00 0.00 85 1013.2
20260509031501 10 301 0.0 0.0 0.00 0.00 0.00 84 1013.1
20260509030101 10 301 0.0 0.0 0.00 0.00 0.00 82 1013.0
20260509024604 10 301 0.0 0.0 0.00 0.00 0.00 82 1013.0
20260509023100 10 301 0.0 0.0 0.00 0.00 0.00 83 1013.1
20260509021600 10 301 0.0 0.0 0.00 0.00 0.00 82 1012.8
20260509020058 11 301 0.0 0.0 0.00 0.00 0.00 79 1012.6
20260509014557 11 301 0.0 0.0 0.00 0.00 0.00 80 1012.8
20260509013058 11 301 0.0 0.0 0.00 0.00 0.00 79 1012.7
20260509011606 11 301 0.0 0.0 0.00 0.00 0.00 79 1013.1
20260509010056 11 301 0.0 0.0 0.00 0.00 0.00 78 1013.0
20260509004609 11 301 0.0 0.0 0.00 0.00 0.00 76 1012.6
20260509003055 11 301 0.0 0.0 0.00 0.00 0.00 75 1012.4
20260509001555 11 301 0.0 0.0 0.00 0.00 0.00 75 1012.5
20260509000057 12 301 1.6 8.0 0.00 0.00 0.00 72 1012.4
20260508234554 12 301 0.0 6.4 0.00 0.00 0.00 71 1012.5
20260508233053 12 283 0.0 14.5 0.00 0.00 0.00 70 1012.4
20260508231554 13 229 3.2 22.5 0.00 0.00 0.00 68 1012.5
20260508230050 13 304 8.0 12.9 0.00 0.00 0.00 65 1012.3
20260508224552 13 249 3.2 12.9 0.00 0.00 0.00 64 1012.3
20260508223055 14 236 1.6 14.5 0.00 0.00 0.00 63 1012.1
20260508221551 14 217 6.4 25.7 0.00 0.00 0.00 62 1012.1
20260508220049 13 218 11.3 25.7 0.00 0.00 0.00 65 1012.1
20260508214556 13 283 11.3 27.4 0.00 0.00 0.00 65 1012.3
20260508213047 14 253 11.3 29.0 0.00 0.00 0.00 64 1012.2
20260508211546 14 244 12.9 25.7 0.00 0.00 0.00 63 1012.0
20260508210045 14 225 11.3 27.4 0.00 0.00 0.00 62 1011.9
20260508204546 14 288 6.4 24.1 0.00 0.00 0.00 61 1012.0
20260508203047 15 136 17.7 32.2 0.00 0.00 0.00 60 1012.1
20260508201543 14 208 9.7 27.4 0.00 0.00 0.00 63 1012.1
20260508200042 13 219 11.3 27.4 0.00 0.00 0.00 66 1012.2
20260508194541 15 239 11.3 37.0 0.00 0.00 0.00 60 1012.3
20260508193054 16 317 9.7 33.8 0.00 0.00 0.00 53 1012.0
20260508191543 16 241 9.7 25.7 0.00 0.00 0.00 54 1012.0
20260508190038 15 222 9.7 19.3 0.00 0.00 0.00 54 1012.2
20260508184538 15 223 11.3 30.6 0.00 0.00 0.00 52 1012.3
20260508183037 16 210 11.3 22.5 0.00 0.00 0.00 49 1012.0
20260508181539 17 226 12.9 27.4 0.00 0.00 0.00 48 1012.1
20260508180039 17 275 6.4 27.4 0.00 0.00 0.00 48 1012.0
20260508174534 16 279 8.0 22.5 0.00 0.00 0.00 49 1012.7
20260508173028 17 226 11.3 22.5 0.00 0.00 0.00 49 1012.8
20260508171531 16 190 9.7 22.5 0.00 0.00 0.00 54 1013.0
20260508170122 15 297 11.3 32.2 0.00 0.00 0.00 51 1013.3
20260508164520 15 278 12.9 35.4 0.00 0.00 0.00 53 1013.2
20260508163020 15 259 8.0 19.3 0.00 0.00 0.00 53 1013.3
20260508161517 15 305 11.3 32.2 0.00 0.00 0.00 53 1013.5
20260508160032 15 257 6.4 17.7 0.00 0.00 0.00 53 1013.6
20260508154514 15 238 11.3 32.2 0.00 0.00 0.00 53 1013.6
20260508153011 14 259 8.0 33.8 0.00 0.00 0.00 55 1013.6
20260508151511 13 204 11.3 27.4 0.00 0.00 0.00 56 1013.7
20260508150014 13 226 12.9 30.6 0.00 0.00 0.00 56 1013.8
20260508144502 12 262 11.3 30.6 0.00 0.00 0.00 59 1013.9
20260508143106 11 246 12.9 24.1 0.00 0.00 0.00 60 1014.0
20260508141606 11 250 9.7 27.4 0.00 0.00 0.00 61 1014.2
20260508140055 11 315 4.8 33.8 0.00 0.00 0.00 62 1014.2
20260508134555 11 260 6.4 27.4 0.00 0.00 0.00 62 1014.1
20260508133058 11 303 3.2 20.9 0.00 0.00 0.00 61 1014.0
20260508131550 10 233 0.0 11.3 0.00 0.00 0.00 63 1014.2
20260508130053 8 175 4.8 16.1 0.00 0.00 0.00 68 1014.1
20260508124541 7 163 3.2 11.3 0.00 0.00 0.00 75 1014.2